Wind from 100 at 2 knots gusting 2

Air temperature 12.2° C
Dewpoint 7.5° C

Last reported at 2014-Apr-20 07:46 UTC.
Time now 2014-Apr-20 08:47 UTC

Location: N 43°58' E 011°06'.
View on Google Maps.

See reports from other nearby stations

Tides Stations Pressure Air Temp Water Temp Dewpoint Dewpoint depression Visibility Wind Speed Wind Dir Waves Ship positions

  
sailing weather and tide predictions

IK5NLA Vaiano IT weather

date/time (UTC)wind fromknots sea level pressurealtimeterstation pressurevisibilityair tempwater tempwave heightnotes
2014-Apr-20 07:46 100 2 gusting 2 12.2
2014-Apr-20 07:35 126 0 gusting 5 11.7
2014-Apr-20 07:25 110 4 gusting 6 11.7
2014-Apr-20 07:16 096 3 gusting 5 11.1
2014-Apr-20 07:05 083 5 gusting 6 11.1
2014-Apr-20 06:55 122 3 gusting 6 11.1
2014-Apr-20 06:45 092 2 gusting 6 11.1
2014-Apr-20 06:35 082 3 gusting 6 11.1
2014-Apr-20 06:25 107 2 gusting 4 10.6
2014-Apr-20 06:15 090 4 gusting 5 10.0
2014-Apr-20 06:05 084 3 gusting 5 10.0
2014-Apr-20 05:55 078 1 gusting 3 10.0
2014-Apr-20 05:45 105 2 gusting 4 10.0
2014-Apr-20 05:35 088 0 gusting 3 10.0
2014-Apr-20 05:25 073 9.4
2014-Apr-20 05:15 067 3 gusting 7 9.4
2014-Apr-20 05:05 065 2 gusting 4 9.4
2014-Apr-20 04:56 025 0 gusting 5 9.4
2014-Apr-20 04:45 036 2 gusting 5 8.9
2014-Apr-20 04:35 040 3 gusting 5 8.9
2014-Apr-20 04:25 034 3 gusting 5 9.4
2014-Apr-20 04:15 053 2 gusting 5 9.4
2014-Apr-20 04:05 029 4 gusting 6 8.9
2014-Apr-20 03:55 024 3 gusting 6 8.9
2014-Apr-20 03:45 052 1 gusting 5 8.9
2014-Apr-20 03:35 047 3 gusting 7 8.9
2014-Apr-20 03:25 045 3 gusting 4 9.4
2014-Apr-20 03:15 010 3 gusting 6 9.4
2014-Apr-20 03:05 330 6 gusting 6 9.4
2014-Apr-20 02:55 344 3 gusting 8 9.4
2014-Apr-20 02:45 011 6 gusting 8 9.4
2014-Apr-20 02:35 346 6 gusting 8 9.4
2014-Apr-20 02:25 005 5 gusting 8 9.4
2014-Apr-20 02:15 355 7 gusting 8 9.4
2014-Apr-20 02:05 337 8 gusting 8 9.4
2014-Apr-20 01:55 340 5 gusting 7 9.4
2014-Apr-20 01:45 009 5 gusting 7 9.4
2014-Apr-20 01:35 019 3 gusting 7 9.4
2014-Apr-20 01:25 028 5 gusting 7 9.4
2014-Apr-20 01:15 345 5 gusting 7 8.9
2014-Apr-20 01:05 355 8.9
2014-Apr-20 00:55 334 1 gusting 5 8.9
2014-Apr-20 00:45 040 1 gusting 4 9.4
2014-Apr-20 00:35 341 4 gusting 4 9.4
2014-Apr-20 00:25 355 4 gusting 6 9.4
2014-Apr-20 00:15 330 5 gusting 6 9.4
2014-Apr-20 00:05 348 2 gusting 6 10.0
2014-Apr-19 23:55 011 2 gusting 6 10.0
2014-Apr-19 23:45 013 3 gusting 7 10.0
2014-Apr-19 23:35 344 3 gusting 5 9.4
2014-Apr-19 23:25 330 3 gusting 5 9.4
2014-Apr-19 23:15 360 3 gusting 5 9.4
2014-Apr-19 23:05 360 3 gusting 5 9.4
2014-Apr-19 22:55 360 2 gusting 6 9.4
2014-Apr-19 22:45 344 3 gusting 4 9.4
2014-Apr-19 22:35 342 2 gusting 6 9.4
2014-Apr-19 22:25 360 2 gusting 6 9.4
2014-Apr-19 22:15 005 3 gusting 6 9.4
2014-Apr-19 22:05 024 2 gusting 6 9.4
2014-Apr-19 21:55 349 3 gusting 6 9.4
2014-Apr-19 21:45 350 5 gusting 8 9.4
2014-Apr-19 21:35 034 3 gusting 6 9.4
2014-Apr-19 21:25 360 2 gusting 6 9.4
2014-Apr-19 21:15 345 3 gusting 7 10.0
2014-Apr-19 21:05 011 6 gusting 6 9.4
2014-Apr-19 20:55 334 5 gusting 6 9.4
2014-Apr-19 20:45 032 3 gusting 4 10.0
2014-Apr-19 20:36 350 4 gusting 6 10.0
2014-Apr-19 20:25 331 3 gusting 6 10.0
2014-Apr-19 20:15 340 2 gusting 6 10.0
2014-Apr-19 20:05 005 4 gusting 6 10.0
2014-Apr-19 19:55 360 2 gusting 5 10.0
2014-Apr-19 19:45 344 4 gusting 6 10.0
2014-Apr-19 19:35 026 6 gusting 6 10.0
2014-Apr-19 19:25 360 2 gusting 6 10.0
2014-Apr-19 19:15 360 2 gusting 4 10.0
2014-Apr-19 19:05 022 3 gusting 6 10.0
2014-Apr-19 18:55 360 2 gusting 7 10.0
2014-Apr-19 18:45 009 5 gusting 8 10.0
2014-Apr-19 18:35 048 5 gusting 6 10.0
2014-Apr-19 18:25 029 3 gusting 5 10.0
2014-Apr-19 18:15 009 5 gusting 7 10.0
2014-Apr-19 18:05 015 4 gusting 8 10.0
2014-Apr-19 17:55 012 6 gusting 8 10.0
2014-Apr-19 17:45 355 6 gusting 7 10.0
2014-Apr-19 17:35 005 4 gusting 7 10.0
2014-Apr-19 17:25 087 5 gusting 10 10.0
2014-Apr-19 17:15 055 4 gusting 7 9.4
2014-Apr-19 17:05 049 3 gusting 5 9.4
2014-Apr-19 16:55 011 6 gusting 8 9.4
2014-Apr-19 16:45 360 6 gusting 8 9.4
2014-Apr-19 16:35 040 7 gusting 8 9.4
2014-Apr-19 16:25 021 7 gusting 7 9.4
2014-Apr-19 16:15 360 6 gusting 6 9.4
2014-Apr-19 16:05 065 2 gusting 7 9.4
2014-Apr-19 15:55 045 4 gusting 8 9.4
2014-Apr-19 15:45 027 6 gusting 6 9.4
2014-Apr-19 15:35 355 4 gusting 8 9.4
2014-Apr-19 15:25 340 7 gusting 8 9.4
2014-Apr-19 15:15 337 6 gusting 9 9.4
2014-Apr-19 15:05 340 6 gusting 6 9.4
2014-Apr-19 14:55 339 6 gusting 7 9.4
2014-Apr-19 14:45 022 6 gusting 8 8.9
2014-Apr-19 14:35 030 5 gusting 8 8.9
2014-Apr-19 14:25 046 4 gusting 8 8.9
2014-Apr-19 14:15 042 5 gusting 6 8.9
2014-Apr-19 14:05 038 6 gusting 10 8.9
2014-Apr-19 13:55 360 7 gusting 8 8.9
2014-Apr-19 13:45 025 4 gusting 7 8.9
2014-Apr-19 13:35 078 4 gusting 8 8.9
2014-Apr-19 13:25 081 5 gusting 7 8.9
2014-Apr-19 13:15 360 4 gusting 8 8.9
2014-Apr-19 13:05 021 3 gusting 6 8.9
2014-Apr-19 12:55 355 2 gusting 4 8.9
2014-Apr-19 12:45 347 2 gusting 6 8.9
2014-Apr-19 12:35 021 2 gusting 4 8.9
2014-Apr-19 12:25 011 8.3
2014-Apr-19 12:15 040 6 gusting 7 8.3
2014-Apr-19 12:05 017 8.3
2014-Apr-19 11:55 025 4 gusting 5 8.3
2014-Apr-19 11:45 327 6 gusting 9 8.3
2014-Apr-19 11:35 342 7 gusting 11 8.3
2014-Apr-19 11:26 041 5 gusting 9 8.3
2014-Apr-19 11:15 342 10 gusting 10 8.3
2014-Apr-19 11:05 130 8.3
2014-Apr-19 10:55 036 7 gusting 9 8.3
2014-Apr-19 10:45 323 6 gusting 10 8.3
2014-Apr-19 10:35 333 14 gusting 14 8.3
2014-Apr-19 10:25 075 6 gusting 10 7.8
2014-Apr-19 10:15 339 4 gusting 10 7.8
2014-Apr-19 10:05 307 4 gusting 8 7.8
2014-Apr-19 09:55 040 4 gusting 8 7.8
2014-Apr-19 09:45 325 5 gusting 9 7.8
2014-Apr-19 09:35 065 2 gusting 8 7.8
2014-Apr-19 09:25 336 7 gusting 8 7.8
2014-Apr-19 09:15 005 3 gusting 6 7.8
2014-Apr-19 09:05 037 5 gusting 10 7.8
2014-Apr-19 08:55 041 5 gusting 8 7.8
2014-Apr-19 08:45 084 7.8
2014-Apr-19 08:35 341 2 gusting 8 7.8
2014-Apr-19 08:25 047 4 gusting 7 7.8
2014-Apr-19 08:15 037 7 gusting 9 7.8
2014-Apr-19 08:05 052 6 gusting 7 7.8
2014-Apr-19 07:55 047 2 gusting 6 7.8
2014-Apr-19 07:45 275 7.8
2014-Apr-19 07:35 078 0 gusting 2 7.8
2014-Apr-19 07:25 123 2 gusting 5 7.8
2014-Apr-19 07:15 115 8.3
2014-Apr-19 07:05 224 3 gusting 8 8.3
2014-Apr-19 06:55 172 8.3
2014-Apr-19 06:45 140 8.3
2014-Apr-19 06:35 265 4 gusting 8 8.3
2014-Apr-19 06:25 198 0 gusting 8 8.3
2014-Apr-19 06:15 155 1 gusting 6 8.3
2014-Apr-19 06:05 140 2 gusting 4 8.3
2014-Apr-19 05:55 243 0 gusting 5 8.3
2014-Apr-19 05:45 196 6 gusting 11 8.9
2014-Apr-19 05:35 199 1 gusting 3 8.9
2014-Apr-19 05:25 209 0 gusting 6 8.9
2014-Apr-19 05:15 294 2 gusting 2 8.9
2014-Apr-19 05:05 113 2 gusting 3 8.9
2014-Apr-19 04:55 344 4 gusting 4 8.9
2014-Apr-19 04:45 360 2 gusting 3 8.9
2014-Apr-19 04:35 117 0 gusting 3 8.9
2014-Apr-19 04:25 055 1 gusting 5 8.9
2014-Apr-19 04:15 021 4 gusting 8 8.9
2014-Apr-19 04:05 031 1 gusting 3 9.4
2014-Apr-19 03:55 342 0 gusting 3 9.4
2014-Apr-19 03:45 261 1 gusting 5 9.4
2014-Apr-19 03:35 295 0 gusting 4 9.4
2014-Apr-19 03:25 297 9.4
2014-Apr-19 03:15 331 0 gusting 4 9.4
2014-Apr-19 03:05 101 0 gusting 4 9.4
2014-Apr-19 02:55 052 2 gusting 4 10.0
2014-Apr-19 02:45 071 4 gusting 5 10.0
2014-Apr-19 02:35 041 3 gusting 6 9.4
2014-Apr-19 02:25 039 1 gusting 6 9.4
2014-Apr-19 02:15 026 2 gusting 4 9.4
2014-Apr-19 02:05 037 3 gusting 4 9.4
2014-Apr-19 01:55 042 1 gusting 2 9.4
2014-Apr-19 01:45 017 3 gusting 5 9.4
2014-Apr-19 01:35 360 2 gusting 6 9.4
2014-Apr-19 01:25 018 1 gusting 3 9.4
2014-Apr-19 01:15 355 2 gusting 4 9.4
2014-Apr-19 01:05 360 3 gusting 5 9.4
2014-Apr-19 00:55 015 3 gusting 3 9.4
2014-Apr-19 00:45 025 2 gusting 3 9.4
2014-Apr-19 00:35 024 3 gusting 4 9.4
2014-Apr-19 00:25 360 0 gusting 4 9.4
2014-Apr-19 00:15 338 9.4
2014-Apr-19 00:05 338 9.4
2014-Apr-18 23:55 328 9.4
2014-Apr-18 23:45 315 9.4
2014-Apr-18 23:35 273 9.4
2014-Apr-18 23:25 271 9.4
2014-Apr-18 23:15 263 9.4
2014-Apr-18 23:05 231 10.0
2014-Apr-18 22:55 200 10.0
2014-Apr-18 22:45 182 10.0
2014-Apr-18 22:35 182 10.0
2014-Apr-18 22:25 287 1 gusting 2 10.0
2014-Apr-18 22:15 288 10.0
2014-Apr-18 22:05 289 2 gusting 3 10.0
2014-Apr-18 21:55 277 2 gusting 5 10.0
2014-Apr-18 21:45 272 3 gusting 5 10.0
2014-Apr-18 21:35 246 3 gusting 6 10.0
2014-Apr-18 21:25 238 4 gusting 5 10.0
2014-Apr-18 21:15 242 4 gusting 4 10.0
2014-Apr-18 21:05 237 2 gusting 4 10.0
2014-Apr-18 20:55 246 4 gusting 4 10.0
2014-Apr-18 20:45 242 3 gusting 5 10.0
2014-Apr-18 20:35 195 2 gusting 5 10.6
2014-Apr-18 20:25 261 3 gusting 4 10.6
2014-Apr-18 20:15 234 10.6
2014-Apr-18 20:05 237 2 gusting 4 10.6
2014-Apr-18 19:55 244 2 gusting 6 10.6
2014-Apr-18 19:45 261 2 gusting 6 10.6
2014-Apr-18 19:35 225 2 gusting 6 10.6
2014-Apr-18 19:25 271 2 gusting 8 10.6
2014-Apr-18 19:15 205 6 gusting 9 10.6
2014-Apr-18 19:05 236 0 gusting 6 11.1
2014-Apr-18 18:55 236 2 gusting 5 11.1
2014-Apr-18 18:45 193 3 gusting 5 11.1
2014-Apr-18 18:35 221 2 gusting 5 11.1
2014-Apr-18 18:25 203 3 gusting 8 11.1
2014-Apr-18 18:15 281 7 gusting 8 11.1
2014-Apr-18 18:05 264 10 gusting 11 11.1
2014-Apr-18 17:55 279 3 gusting 8 11.1
2014-Apr-18 17:45 282 2 gusting 8 11.1
2014-Apr-18 17:35 256 6 gusting 7 11.7
2014-Apr-18 17:25 257 8 gusting 10 11.7
2014-Apr-18 17:15 251 7 gusting 11 11.7
2014-Apr-18 17:05 255 8 gusting 14 11.7
2014-Apr-18 16:55 252 8 gusting 16 11.7
2014-Apr-18 16:45 240 12 gusting 12 11.7
2014-Apr-18 16:35 215 5 gusting 8 11.7
2014-Apr-18 16:25 270 5 gusting 9 11.7
2014-Apr-18 16:05 240 5 gusting 14 11.7
2014-Apr-18 15:55 268 10 gusting 15 12.2
2014-Apr-18 15:45 246 9 gusting 16 12.2
2014-Apr-18 15:35 270 9 gusting 17 12.2
2014-Apr-18 15:25 268 7 gusting 14 12.8
2014-Apr-18 15:15 254 7 gusting 11 12.8
2014-Apr-18 15:05 286 9 gusting 13 12.8
2014-Apr-18 14:55 259 10 gusting 15 12.8
2014-Apr-18 14:45 256 13 gusting 19 12.8
2014-Apr-18 14:35 247 15 gusting 19 13.3
2014-Apr-18 14:15 278 8 gusting 19 13.3
2014-Apr-18 14:05 276 7 gusting 16 13.3
2014-Apr-18 13:55 269 10 gusting 19 13.9
2014-Apr-18 13:45 259 8 gusting 15 13.9
2014-Apr-18 13:35 286 5 gusting 9 14.4
2014-Apr-18 13:25 251 12 gusting 15 14.4
2014-Apr-18 13:15 236 5 gusting 12 14.4
2014-Apr-18 13:05 265 5 gusting 9 14.4
2014-Apr-18 12:55 238 4 gusting 14 13.9
2014-Apr-18 12:45 200 2 gusting 18 13.9
2014-Apr-18 12:35 225 7 gusting 12 13.9
2014-Apr-18 12:25 236 12 gusting 14 13.9
2014-Apr-18 12:15 214 7 gusting 16 13.9
2014-Apr-18 12:05 231 1 gusting 10 13.3
2014-Apr-18 11:55 244 9 gusting 12 13.3
2014-Apr-18 11:45 232 10 gusting 14 13.3
2014-Apr-18 11:35 244 9 gusting 11 13.3
2014-Apr-18 11:25 228 10 gusting 12 12.8
2014-Apr-18 11:15 250 8 gusting 16 12.8
2014-Apr-18 11:05 245 10 gusting 14 12.8
2014-Apr-18 10:55 219 8 gusting 14 12.8
2014-Apr-18 10:45 240 2 gusting 11 12.8
2014-Apr-18 10:35 234 9 gusting 13 12.8
2014-Apr-18 10:25 203 5 gusting 10 12.8
2014-Apr-18 10:15 191 8 gusting 10 12.2
2014-Apr-18 10:05 223 5 gusting 11 12.2
2014-Apr-18 09:55 236 5 gusting 11 12.2
2014-Apr-18 09:45 230 6 gusting 12 11.7
2014-Apr-18 09:35 233 7 gusting 12 12.2
2014-Apr-18 09:25 212 4 gusting 8 12.8
2014-Apr-18 09:15 171 4 gusting 9 12.8
2014-Apr-18 09:05 217 1 gusting 8 13.3
2014-Apr-18 08:55 236 1 gusting 8 13.3
2014-Apr-18 08:45 041 0 gusting 6 12.2
2014-Apr-18 08:35 123 3 gusting 5 12.2
2014-Apr-18 08:25 085 3 gusting 4 11.7
2014-Apr-18 08:15 116 3 gusting 4 11.7
2014-Apr-18 08:05 094 2 gusting 4 11.1